Notices

What's New in latest Release from April 7th, 2021:

- Updated Glossary, including Speed of Maximum Gust, and Total Hourly Precipitation

- Updated national and regional climate services offices contacts and prices information

- Addition of station inventory lists for 1981-2010, 1971-2000, and 1961-1990 Normals.

If you haven't already, please take our survey and provide feedback about our website: https://eccc.sondage-survey.ca/f/LanguageSelection.aspx?s=442ca660-fcf1-47c0-95a9-59707d6fd709

Hourly Data Report for November 20, 2019

SHEARWATER RCS
NOVA SCOTIA
Current Station Operator: ECCC - MSC

44°37'47.000" N
63°30'48.000" W
24.00 m
8205092
71264
AAW

Download Data

Hourly Data (November 2019)
Hourly Data Report for November 20, 2019
TIME
LST
Temp Definition
°C
Dew Point Definition
°C
Rel Hum Definition
%
Precip. Amount Definition
mm

Wind Dir Definition
10's deg

Wind Spd Definition
km/h
Visibility Definition
km
Stn Press Definition
kPa
Hmdx Definition


Wind Chill Definition


Weather Definition


00:00 4.0 2.9 92 0.0 3 8   100.71     LegendNANA
01:00 3.4 2.3 92 0.0 3 11   100.72     LegendNANA
02:00 2.4 1.3 92 0.0 1 6   100.77     LegendNANA
03:00 1.8 0.7 92 0.0 1 13   100.77     LegendNANA
04:00 1.6 0.3 92 0.0 2 13   100.75     LegendNANA
05:00 2.0 0.6 91 0.0 2 17   100.75     LegendNANA
06:00 2.0 0.1 87 0.0 1 13   100.72     LegendNANA
07:00 2.1 0.1 87 0.0 3 16   100.79     LegendNANA
08:00 2.3 0.1 85 0.0 3 16   100.73     LegendNANA
09:00 2.5 0.2 85 0.0 4 20   100.70     LegendNANA
10:00 3.0 0.7 85 0.0 2 16   100.58     LegendNANA
11:00 3.4 1.0 84 0.0 3 19   100.53     LegendNANA
12:00 4.0 1.4 83 0.0 4 21   100.47     LegendNANA
13:00 4.1 1.3 82 0.0 3 15   100.55     LegendNANA
14:00 4.4 1.4 81 0.0 3 16   100.53     LegendNANA
15:00 4.3 1.6 83 0.0 3 15   100.54     LegendNANA
16:00 3.9 2.1 88 0.0 1 14   100.50     LegendNANA
17:00 3.9 2.0 88 0.0 36 17   100.45     LegendNANA
18:00 4.0 1.9 87 0.0 1 19   100.42     LegendNANA
19:00 3.9 1.6 85 0.0 1 20   100.46     LegendNANA
20:00 3.6 1.7 87 0.0 1 18   100.45     LegendNANA
21:00 3.4 1.9 89 0.0 1 15   100.47     LegendNANA
22:00 3.9 2.1 88 0.0 36 14   100.45     LegendNANA
23:00 3.9 2.0 88 0.0 36 14   100.43     LegendNANA

Notes on Data Quality.

Legend

  • E = Estimated
  • M = Missing
  • NA = Not Available*
  • [empty] = Indicates an unobserved value
Date modified: